Preview of NWS' New Version of Forecast
This preview is not operational and should not be used for support decisions.

Regional Weather Roundup (RWR)

Issued by Gray - Portland, ME (GYX)

                            
000
ASUS41 KGYX 221205
RWRGYX
WEATHER ROUNDUP FOR MAINE AND NEW HAMPSHIRE
NATIONAL WEATHER SERVICE GRAY ME
800 AM EDT FRI MAR 22 2019

MEZ002-005-006-010-012-015-018-020-021-024-026-027-029-221300-
MAINE
  
CITY           SKY/WX    TMP DP  RH WIND       PRES   REMARKS
PORTLAND       LGT SNOW  34  32  92 N16G25    29.50F FOG              
6HR MIN TEMP:  34; 6HR MAX TEMP:  38; 6HR PCP:  0.04;                

SANFORD        LGT SNOW  34  32  92 N21G26    29.45F FOG              
BAR HARBOR     LGT SNOW  33  31  92 N7        29.63F FOG              
WISCASSET      LGT SNOW  33  32  96 VRB5      29.56F FOG              
6HR MIN TEMP:  33; 6HR MAX TEMP:  36; 6HR PCP:  0.09;                

ROCKLAND       LGT RAIN  33  32  96 NE14G21   29.57F FOG              
FRYEBURG       CLOUDY    33  31  92 N12       29.55F                  
6HR MIN TEMP:  33; 6HR MAX TEMP:  35; 6HR PCP:  0.03;                

LEWISTONAUBURN LGT SNOW  33  30  88 N14       29.56F FOG              
AUGUSTA        CLOUDY    32  29  88 N13       29.61F                  
6HR MIN TEMP:  32; 6HR MAX TEMP:  34;                                

WATERVILLE     CLOUDY    32  29  88 N13       29.60F                  
BANGOR         CLOUDY    33  27  78 N9        29.66F                  
6HR MIN TEMP:  33; 6HR MAX TEMP:  35;                                

GREENVILLE       N/A     31  17  56 E9        29.61F                  
6HR MIN TEMP:  29; 6HR MAX TEMP:  31;                                

MILLINOCKET    CLOUDY    32  25  75 NE5       29.72F                  
6HR MIN TEMP:  31; 6HR MAX TEMP:  34;                                

HOULTON        CLOUDY    31  25  78 E6        29.73F                  
6HR MIN TEMP:  31; 6HR MAX TEMP:  33;                                

PRESQUE ISLE   CLOUDY    32  25  75 E6        29.75F                  
6HR MIN TEMP:  31; 6HR MAX TEMP:  36; 6HR PCP: TRACE;                

FRENCHVILLE    LGT SNOW  31  26  82 SE14      29.76R                  
6HR MIN TEMP:  31; 6HR MAX TEMP:  36; 6HR PCP:  0.04;                

CARIBOU        CLOUDY    33  23  66 E5        29.74F                  
6HR MIN TEMP:  31; 6HR MAX TEMP:  37; 6HR PCP:  0.02;                

$$

NHZ002-005-008-009-011-012-014-221300-
NEW HAMPSHIRE
  
CITY           SKY/WX    TMP DP  RH WIND       PRES   REMARKS
PORTSMOUTH     LGT RAIN  36  34  94 N16G23    29.41F                  
ROCHESTER      MIX PCPN  34  34 100 N15G21    29.44F                  
6HR MIN TEMP:  34; 6HR MAX TEMP:  36; 6HR PCP:  0.02;                

NASHUA         CLOUDY    36  36 100 NE10G20   29.41F                  
MANCHESTER     LGT RAIN  37  33  85 NE15G22   29.41F                  
6HR MIN TEMP:  36; 6HR MAX TEMP:  39; 6HR PCP:  0.02;                

CONCORD        CLOUDY    35  33  92 NE12      29.44F                  
6HR MIN TEMP:  35; 6HR MAX TEMP:  37; 6HR PCP:  0.03;                

LACONIA        LGT RAIN  33  31  92 NE17G24   29.47F                  
PLYMOUTH       MIX PCPN  35  33  93 CALM      29.50F                  
BERLIN         LGT SNOW  33  31  92 NE3       29.57F VSB 3/4          
6HR MIN TEMP:  33; 6HR MAX TEMP:  35; 6HR PCP:  0.01;                

WHITEFIELD     NOT AVBL                                               
JAFFREY        LGT SNOW  34  34 100 VRB7      29.38F FOG              
6HR MIN TEMP:  33; 6HR MAX TEMP:  35; 6HR PCP:  0.07;                

KEENE          LGT RAIN  35  33  92 N9        29.41F                  
LEBANON        LGT SNOW  34  31  88 N6        29.48F FOG              
6HR MIN TEMP:  34; 6HR MAX TEMP:  39; 6HR PCP:  0.01;                

MT WASHINGTON  SNOW      18  18 100 E35G46      N/A  VSB 1/16WCI  -3  
6HR MIN TEMP:  14; 6HR MAX TEMP:  22; 6HR PCP:  0.07;                

$$

VTZ005-007-008-221300-
VERMONT
  
CITY           SKY/WX    TMP DP  RH WIND       PRES   REMARKS
ST JOHNSBURY     N/A     33  33 100 MISG      29.52F                  
MONTPELIER     SNOW      32  32 100 N6        29.55F VSB 1/2          
BURLINGTON     LGT SNOW  34  31  88 E3        29.55F VSB 3/4          
$$

MAZ007-012-024-CTZ003-RIZ002-NYZ038-NYZ072-221300-
SOUTHERN NEW ENGLAND AND NY
  
CITY           SKY/WX    TMP DP  RH WIND       PRES   REMARKS
BOSTON         LGT RAIN  40  36  86 NE28G37   29.33F                  
WORCESTER      LGT RAIN  34  33  96 NE15G26   29.31F FOG              
NANTUCKET      LGT RAIN  42  41  96 NW14      29.20F FOG              
PROVIDENCE     LGT RAIN  40  38  93 NE17G25   29.29F                  
HARTFORD       CLOUDY    38  36  92 N14G24    29.35F                  
ALBANY         LGT SNOW  35  32  88 N12       29.48F FOG              
NEW YORK CITY  LGT RAIN  43  40  89 N17G26    29.31R FOG              
$$

ANZ081-ANZ082-ANZ150-NHZ014-MEZ023>029-221300-
COASTAL MARINE OBSERVATIONS
  
STATION/POSITION TIME  TEMP    WIND        PRES    WAVE
                       AIR SEA DIR/SP/G            HT/PER
                 (UTC) (F)     (DEG/KT/KT) (MB)    (FT/S)
MOUNT DESERT ROC 1100   37      50/ 23/ 26 1003.4F
MATINICUS ROCK   1100   36      60/ 24/ 28 1001.6F
ISLE OF SHOALS   1100   37      30/ 31/ 34  996.5F
JEFFREYS LEDGE   1138      39                N/A     7/ 6
CASHES LEDGE BUO 1150   38 40               993.4F   7/ 6
$$

.............KEY..............
   WCI - WIND CHILL
   TC  - TEMPERATURE IN CELSIUS
   VSB - VISIBILITY IN MILES
   HX  - HEAT INDEX
   FAIR- INDICATES FEW OR NO CLOUDS BELOW 12,000 FT, WITH NO 
         SIGNIFICANT WEATHER AND/OR OBSTRUCTIONS TO VISIBILITY.